AirNav   ATP
 
 302 users online  

WY29 Vowers Ranch Airport
Chugwater, Wyoming, USA

GOING TO CHUGWATER?


FAA INFORMATION EFFECTIVE 13 SEPTEMBER 2018

Location

FAA Identifier: WY29
Lat/Long: 41-37-19.9090N / 104-47-06.8820W
41-37.331817N / 104-47.114700W
41.6221969 / -104.7852450
(estimated)
Elevation: 5550 ft. / 1692 m (estimated)
Variation: 12E (1985)
From city: 8 miles S of CHUGWATER, WY
Time zone: UTC -6 (UTC -7 during Standard Time)
Zip code: 82009

Airport Operations

Airport use: Private use. Permission required prior to landing
Activation date: 06/1991
Control tower: no
ARTCC: DENVER CENTER
FSS: CASPER FLIGHT SERVICE STATION
Attendance: UNATNDD
Wind indicator: yes
Segmented circle: no

Nearby radio navigation aids

VOR radial/distance  VOR name  Freq  Var
CYSr346/24.7CHEYENNE VORTAC113.1013E

 
NDB name  Hdg/Dist  Freq  Var  ID
CAMP GUERNSEY174/37.228011EGYZ --. -.-- --..
TORRINGTON216/38.829311ETOR - --- .-.

Airport Services

Runway Information

Runway 6/24

Dimensions: 4000 x 60 ft. / 1219 x 18 m
Surface: gravel
RUNWAY 6  RUNWAY 24
Traffic pattern: leftleft

Airport Ownership and Management from official FAA records

Ownership: Privately-owned
Owner: VOWERS RANCH INC
2560 RD. 242
CHEYENNE, WY 82009
Phone 307-422-3561
Manager: KARL WILKERSON
2560 RD. 242
CHEYENNE, WY 82009
Phone 307-422-3561

Airport Operational Statistics

Aircraft based on the field: 2
Single engine airplanes: 2
    

Instrument Procedures

There are no published instrument procedures at WY29.

Some nearby airports with instrument procedures:

KEAN - Phifer Airfield (27 nm N)
KCYS - Cheyenne Regional Airport/Jerry Olson Field (28 nm S)
KGUR - Camp Guernsey Airport (38 nm N)
KTOR - Torrington Municipal Airport (39 nm NE)
KLAR - Laramie Regional Airport (44 nm SW)
 
Loc | Ops | Rwys | IFR | FBO | Links
Com | Nav | Svcs | Stats | Notes


 
Area around WY29 (Vowers Ranch Airport)
 
Road maps at: MapQuest Bing Google
 
Aerial photo
No photo
 
Sectional chart

 
Airport distance calculator
Flying to Vowers Ranch Airport? Find the distance to fly.

From to WY29

Sunrise and sunset
Times for 23-Sep-2018
 Local
(UTC-6)
 Zulu
(UTC)
Morning civil twilight06:2112:21
Sunrise06:4912:49
Sunset18:5400:54
Evening civil twilight19:2201:22

Current date and time
Zulu (UTC)  23-Sep-2018 07:27:27
Local (UTC-6)  23-Sep-2018 01:27:27
 
METAR
KEAN 
27nm N 
230715Z AUTO 17007KT 10SM CLR 14/M07 A2999 RMK AO2 T01441071
KCYS 
28nm S 
230653Z AUTO 28010KT 10SM CLR 12/M07 A3011 RMK AO2 SLP112 T01221067 402890056
KTOR 
39nm NE 
230653Z AUTO 09006KT 10SM CLR 11/M03 A2995 RMK AO2 SLP099 T01061028 403220056
TAF
KCYS 
28nm S 
230520Z 2306/2406 26008KT P6SM SKC FM231700 25011G21KT P6SM FEW250 FM240200 23006KT P6SM SKC
NOTAMs
Click for the latest NOTAMs
NOTAMs are issued by the DoD/FAA and will open in a separate window not controlled by AirNav.

 

 
 

Would you like to see your business listed on this page?

 If your business provides an interesting product or service to pilots, flight crews, aircraft, or users of the Vowers Ranch Airport, you should consider listing it here.  To start the listing process, click on the button below
 
Add a business
 

Other Pages about Vowers Ranch Airport

Update a link
 
Copyright © AirNav, LLC. All rights reserved. Privacy Policy  Contact